Weather observations for the past three days for
Alice, Alice International Airport
Imperial (Metric)
Date Time (cdt) Wind (mph) Vis. (mi.) Weather Sky Cond. Temperature (ºF) Relative Humidity Wind Chill (°F) Heat Index (°F) Pressure Precipitation (in)
Air Dwpt 6 hour altimeter (in) sea level (mb) 1 hr 3 hr 6 hr
Max. Min.
31 17:53 SE 20 G 32 10.00 Fair CLR 96.1 66 37% 100 29.88 1011.4
31 16:53 SE 14 10.00 Fair CLR 99 68 37% 105 29.88 1011.3
31 15:53 SE 15 G 22 10.00 Partly Cloudy SCT070 100.9 69.1 36% 108 29.89 1011.7
31 14:53 SE 10 G 20 10.00 Partly Cloudy SCT070 100.9 68 34% 107 29.91 1012.6
31 13:53 E 10 G 20 10.00 A Few Clouds FEW070 99 68 37% 105 29.94 1013.4
31 12:53 S 13 G 18 10.00 A Few Clouds FEW060 98.1 68 99 75.9 38% 103 29.96 1014.1
31 11:53 SE 10 10.00 Fair CLR 95 70 44% 101 29.98 1014.7
31 10:53 S 10 10.00 Fair CLR 91.9 72 52% 100 29.98 1014.9
31 09:53 S 10 10.00 Fair CLR 88 75 66% 98 29.98 1014.8
31 08:53 S 10 10.00 Fair CLR 84 77 80% 94 29.97 1014.5
31 07:53 SE 7 9.00 Fair CLR 78.1 75.9 93% 81 29.95 1013.9
31 06:53 S 6 9.00 Fair CLR 77 75 81 77 94% 78 29.94 1013.6
31 05:53 SE 5 10.00 Fair CLR 78.1 75 90% 81 29.94 1013.5
31 04:53 SE 6 10.00 Fair CLR 79 75.9 90% 83 29.94 1013.5
31 03:53 SE 5 10.00 Mostly Cloudy BKN020 80.1 75.9 87% 85 29.95 1013.8
31 02:53 SE 6 10.00 Mostly Cloudy SCT020 BKN028 81 77 88% 88 29.95 1014.0
31 01:53 SE 6 10.00 Partly Cloudy SCT023 81 75.9 85% 87 29.96 1014.2
31 00:53 SE 6 10.00 Fair CLR 81 75.9 91.9 81 85% 87 29.96 1014.3
30 23:53 SE 7 10.00 Fair CLR 82 75 79% 89 29.96 1014.2
30 22:53 SE 9 10.00 Fair CLR 82.9 75 77% 90 29.95 1013.9
30 21:53 SE 10 10.00 Fair CLR 84 75.9 77% 93 29.94 1013.6
30 20:53 SE 13 10.00 Fair CLR 84.9 75 72% 93 29.92 1012.8
30 19:53 SE 14 G 23 10.00 Fair CLR 88 72 59% 95 29.9 1012.1
30 18:53 SE 17 G 24 10.00 Fair CLR 91.9 70 100 91.9 49% 98 29.88 1011.6
30 17:53 SE 18 G 25 10.00 Fair CLR 96.1 68 40% 101 29.87 1011.3
30 16:53 SE 14 G 28 10.00 Fair CLR 99 68 37% 105 29.87 1011.0
30 15:53 SE 12 10.00 A Few Clouds FEW065 FEW080 98.1 69.1 39% 104 29.89 1011.8
30 14:53 E 12 G 18 10.00 A Few Clouds FEW070 97 69.1 40% 103 29.92 1012.7
30 13:53 SE 10 10.00 Mostly Cloudy BKN060 98.1 68 38% 103 29.94 1013.6
30 12:53 SE 8 10.00 A Few Clouds FEW060 97 70 97 73.9 42% 104 29.97 1014.5
30 11:53 S 8 G 17 10.00 Partly Cloudy SCT046 93.9 71.1 48% 101 30 1015.5
30 10:53 S 12 10.00 Fair CLR 91 72 54% 99 30 1015.7
30 09:53 S 12 10.00 A Few Clouds FEW020 88 75.9 68% 99 30 1015.6
30 08:53 S 9 10.00 Fair CLR 84 77 80% 94 29.99 1015.3
30 07:53 SE 3 9.00 Fair CLR 75.9 73.9 94% 75 29.98 1015.0
30 06:53 Calm 10.00 Fair CLR 75 73.9 78.1 75 96% 73 29.97 1014.6
30 05:53 SE 5 10.00 Fair CLR 75.9 73.9 94% 75 29.97 1014.5
30 04:53 SE 5 10.00 Fair CLR 75.9 73.9 94% 75 29.97 1014.4
30 03:53 SE 3 10.00 Fair CLR 75.9 75 97% 75 29.97 1014.6
30 02:53 SE 5 10.00 Fair CLR 77 75 94% 78 29.98 1014.9
30 01:53 S 6 10.00 Fair CLR 78.1 75 90% 81 29.99 1015.1
30 00:53 SE 6 10.00 Fair CLR 78.1 73.9 90 77 87% 81 29.99 1015.4
29 23:53 SE 5 10.00 Fair CLR 79 73.9 85% 83 30 1015.5
29 22:53 SE 8 10.00 Fair CLR 81 75 82% 87 29.99 1015.4
29 21:53 SE 9 10.00 Fair CLR 82 73.9 77% 88 29.98 1015.0
29 20:53 SE 9 10.00 Fair CLR 84 72 67% 90 29.96 1014.2
29 19:53 SE 14 10.00 Fair CLR 87.1 70 57% 92 29.94 1013.4
29 18:53 SE 13 10.00 Fair CLR 90 70 99 90 52% 95 29.93 1013.3
29 17:53 SE 17 G 23 10.00 Fair CLR 93.9 68 43% 98 29.92 1013.0
29 16:53 SE 16 G 25 10.00 Fair CLR 97 70 42% 104 29.93 1013.4
29 15:53 SE 14 G 21 10.00 Light Rain FEW055 95 70 44% 101 29.95 1013.8
29 14:53 E 15 G 25 10.00 Light Rain FEW060 91.9 73 54% 101 29.97 1014.5
29 13:53 S 8 10.00 Thunderstorm in Vicinity FEW060 97 70 42% 104 29.99 1015.3
29 12:53 S 8 G 17 10.00 A Few Clouds FEW050 96.1 70 97 75 43% 103 30.02 1016.3
29 11:53 SE 9 10.00 A Few Clouds FEW041 93 72 50% 101 30.04 1016.9
29 10:53 SE 9 10.00 Partly Cloudy SCT032 90 73 58% 98 30.05 1017.4
29 09:53 S 6 10.00 Partly Cloudy SCT020 SCT025 87.1 75 67% 97 30.05 1017.3
29 08:53 SE 6 10.00 Fair CLR 84 75.9 77% 93 30.04 1016.9
29 07:53 E 5 10.00 Fair CLR 77 73.9 90% 78 30.02 1016.3
29 06:53 Calm 10.00 Fair CLR 75 73 82 75 94% 73 30.01 1015.8
29 05:53 E 6 10.00 Fair CLR 75 73 94% 73 30.01 1015.8
29 04:53 Calm 10.00 Fair CLR 75 75 100% 72 30 1015.6
29 03:53 S 5 10.00 Fair CLR 78.1 75 90% 81 29.99 1015.2
29 02:53 SE 3 10.00 Fair CLR 79 75 88% 83 29.99 1015.2
29 01:53 SE 6 10.00 Fair CLR 80.1 75 85% 85 30 1015.4
29 00:53 S 8 10.00 Fair CLR 82 75.9 93 81 82% 89 29.98 1014.9
28 23:53 S 8 10.00 Fair CLR 82 75.9 82% 89 29.99 1015.2
28 22:53 SW 6 10.00 Fair CLR 82.9 75 77% 90 30 1015.8
28 21:53 SE 10 10.00 Fair CLR 84 75 74% 92 29.99 1015.4
28 20:53 SE 10 10.00 Fair CLR 84.9 73 68% 92 29.99 1015.3
28 19:53 SE 16 G 23 10.00 Fair CLR 88 71.1 57% 94 29.95 1013.8
28 18:53 SE 17 10.00 Fair CLR 93 68 102 93 44% 97 29.93 1013.3
Date Time (cdt) Wind (mph) Vis. (mi.) Weather Sky Cond. Air Dwpt Max. Min. Relative Humidity Wind Chill (°F) Heat Index (°F) altimeter (in) sea level (mb) 1 hr 3 hr 6 hr
6 hour
Temperature (ºF) Pressure Precipitation (in)